Погода в Толоконцеве

Россия / Омская область     56°27′10″N   71°12′35″E
темп.,
°C
ветер,
м/с
пор.,
м/с
влажн.,
%
обл.,
%
осадки,
мм/ч
давл.,
гПа
погр.,
м
6 августа, пт
пт600:00+17всв117495 0.0 101011
03:00+18ююв227278 0.0 100939
06:00+17зюз2286100 0.0 100953
09:00+19зюз2482100 0.3 1009244
12:00+19ю2484100 0.7 1008344
15:00+23юв226283 0.0 1008796
18:00+22вюв456634 0.1 1007736
21:00+19вюв388693 0.3 1006323
7 августа, сб
сб700:00+16вюв3109276 0.3 1006256
03:00+14вюв2898100 0.3 1006179
06:00+15в3119689 0.3 1005301
09:00+17вюв399399 1.2 1005387
12:00+21вюв467742 2.0 1005783
15:00+24вюв3566100 0.2 10041065
18:00+22ююз238717 3.5 1005251
21:00+18юв11954 0.7 100531
8 августа, вс
вс800:00+16ю11978 1.9 100614
03:00+15зюз0098100 0.0 100611
06:00+14сз1198100 0.0 100612
09:00+18св129282 0.0 1007339
12:00+21всв2378100 0.1 1007744
15:00+23всв237668 1.4 1007817
18:00+21св2591100 5.4 1008330
21:00+18ссв3896100 1.3 1008204
9 августа, пн
пн900:00+17ссв3898100 1.3 1009162
03:00+16ссв379813 0.2 1009168
06:00+15ссв269847 0.2 1010134
09:00+19св359018 0.0 1011252
12:00+25всв345922 0.0 1011988
15:00+26всв235750 0.2 10111556
18:00+25св126241 0.5 1012354
21:00+20сз228286 0.3 101213
10 августа, вт
вт1000:00+18сз249390 0.8 101380
03:00+18с2393100 0.8 101352
06:00+18сз2394100 0.8 101363
09:00+18сз2594100 0.0 1014175
12:00+22сз3587100 1.9 1014220
15:00+20зсз3590100 0.9 1014246
18:00+20сз258999 1.4 1014169
21:00+18ссз2293100 1.4 101424